Weather History for Boonville, MO

Change the Weather History Date:

Sunday, October 20, 2013

  Actual Average Record
Temperature  
Mean Temperature 57 °F -  
Max Temperature 98 °F 63 °F 98 °F (2013)
Min Temperature 44 °F 41 °F 23 °F (1972)
Degree Days  
Heating Degree Days 8    
Growing Degree Days 7 (Base 50)    
Moisture  
Dew Point 38 °F    
Average Humidity 54    
Maximum Humidity 76    
Minimum Humidity 29    
Precipitation  
Precipitation 0.00 in - - ()
Sea Level Pressure  
Sea Level Pressure 29.87 in    
Wind  
Wind Speed 6 mph (SSW)    
Max Wind Speed 16 mph    
Max Gust Speed 26 mph    
Visibility 10 miles    
Events      
Averages and records for this station are not official NWS values.
T = Trace of Precipitation, MM = Missing Value Source: NWS Daily Summary

Daily Weather History Graph

Daily Weather History Graph

Search for Another Location

Airport:

Trip Planner

Search our weather history database for the weather conditions in past years. The results will help you decide how hot, cold, wet, or windy it might be!

Date:

Astronomy

Oct. 20, 2013 Rise Set
Actual Time 7:25 AM CDT 6:24 PM CDT
Civil Twilight 6:58 AM CDT 6:51 PM CDT
Nautical Twilight 6:27 AM CDT 7:22 PM CDT
Astronomical Twilight 5:56 AM CDT 7:53 PM CDT
Moon 7:34 PM CDT (10/20) 9:02 AM CDT (10/20)
Length of Visible Light 11h 53m
Length of Day
10h 59m
Full, 97% of the Moon is Illuminated
Oct 20
Full
Oct 26
Last Quarter
Nov 3
New
Nov 9
First Quarter
Nov 17
Full

Hourly Weather History & Observations

Time (CDT) Temp. Windchill Dew Point Humidity Pressure Visibility Wind Dir Wind Speed Gust Speed Precip Events Conditions
12:15 AM 47.1 °F - 38.3 °F 71% 29.92 in 10.0 mi SSW 4.6 mph - N/A   Clear
12:35 AM 46.8 °F - 38.3 °F 72% 29.92 in 10.0 mi South 4.6 mph - N/A   Clear
12:55 AM 46.8 °F - 38.3 °F 72% 29.92 in 10.0 mi South 4.6 mph - N/A   Clear
1:15 AM 47.1 °F - 38.3 °F 71% 29.92 in 10.0 mi South 4.6 mph - N/A   Clear
1:35 AM 47.3 °F - 38.3 °F 71% 29.91 in 10.0 mi South 4.6 mph - N/A   Clear
1:55 AM 46.8 °F - 38.3 °F 72% 29.91 in 10.0 mi South 4.6 mph - N/A   Clear
2:15 AM 46.8 °F - 38.3 °F 72% 29.91 in 10.0 mi South 5.8 mph - N/A   Clear
2:35 AM 46.6 °F - 38.1 °F 72% 29.91 in 10.0 mi South 4.6 mph - N/A   Clear
2:55 AM 46.4 °F 44.3 °F 37.9 °F 72% 29.90 in 10.0 mi South 4.6 mph - N/A   Clear
3:15 AM 46.0 °F 43.9 °F 37.8 °F 73% 29.90 in 10.0 mi South 4.6 mph - N/A   Clear
3:35 AM 46.0 °F 43.9 °F 37.6 °F 72% 29.89 in 10.0 mi South 4.6 mph - N/A   Clear
3:55 AM 46.0 °F 43.1 °F 37.6 °F 72% 29.89 in 10.0 mi South 5.8 mph - N/A   Clear
4:15 AM 45.9 °F 43.6 °F 37.4 °F 72% 29.88 in 10.0 mi South 4.6 mph - N/A   Clear
4:35 AM 45.7 °F 42.7 °F 37.4 °F 73% 29.88 in 10.0 mi South 5.8 mph - N/A   Clear
4:55 AM 45.7 °F 43.4 °F 37.4 °F 73% 29.88 in 10.0 mi South 4.6 mph - N/A   Clear
5:15 AM 45.1 °F 42.0 °F 37.4 °F 74% 29.87 in 10.0 mi South 5.8 mph - N/A   Clear
5:35 AM 44.6 °F 41.4 °F 37.4 °F 76% 29.87 in 10.0 mi South 5.8 mph - N/A   Clear
5:55 AM 45.1 °F 42.8 °F 37.4 °F 74% 29.87 in 10.0 mi South 4.6 mph - N/A   Clear
6:15 AM 45.1 °F 42.8 °F 37.4 °F 74% 29.87 in 10.0 mi South 4.6 mph - N/A   Clear
6:35 AM 45.3 °F 42.3 °F 37.4 °F 74% 29.87 in 10.0 mi South 5.8 mph - N/A   Clear
6:55 AM 45.1 °F 42.8 °F 37.4 °F 74% 29.87 in 10.0 mi South 4.6 mph - N/A   Clear
7:15 AM 45.1 °F 42.8 °F 37.4 °F 74% 29.87 in 10.0 mi South 4.6 mph - N/A   Clear
7:35 AM 45.5 °F 43.2 °F 37.6 °F 74% 29.88 in 10.0 mi South 4.6 mph - N/A   Clear
7:55 AM 45.9 °F 42.9 °F 38.1 °F 74% 29.88 in 10.0 mi South 5.8 mph - N/A   Clear
8:15 AM 46.4 °F 45.2 °F 38.5 °F 74% 29.88 in 10.0 mi South 3.5 mph - N/A   Clear
8:35 AM 48.0 °F - 39.0 °F 71% 29.89 in 10.0 mi SSW 5.8 mph - N/A   Clear
8:55 AM 50.2 °F - 39.4 °F 66% 29.89 in 10.0 mi SSW 9.2 mph - N/A   Clear
9:15 AM 51.8 °F - 39.6 °F 63% 29.89 in 10.0 mi SSW 8.1 mph - N/A   Clear
9:35 AM 53.6 °F - 40.1 °F 60% 29.89 in 10.0 mi SW 9.2 mph - N/A   Clear
9:55 AM 55.0 °F - 39.7 °F 56% 29.88 in 10.0 mi SSW 10.4 mph - N/A   Clear
10:15 AM 56.8 °F - 39.6 °F 52% 29.89 in 10.0 mi SSW 13.8 mph - N/A   Clear
10:35 AM 58.3 °F - 39.9 °F 50% 29.89 in 10.0 mi SSW 9.2 mph 16.1 mph N/A   Clear
10:55 AM 59.7 °F - 40.5 °F 49% 29.89 in 10.0 mi SW 6.9 mph - N/A   Clear
11:15 AM 61.0 °F - 39.7 °F 46% 29.88 in 10.0 mi SW 8.1 mph - N/A   Clear
11:35 AM 62.2 °F - 39.4 °F 43% 29.88 in 10.0 mi SSW 9.2 mph 16.1 mph N/A   Clear
11:55 AM 63.5 °F - 39.4 °F 41% 29.87 in 10.0 mi SSW 12.7 mph 16.1 mph N/A   Clear
12:15 PM 64.6 °F - 38.8 °F 39% 29.86 in 10.0 mi SSW 12.7 mph 16.1 mph N/A   Clear
12:35 PM 65.5 °F - 39.2 °F 38% 29.86 in 10.0 mi SSW 8.1 mph 16.1 mph N/A   Clear
12:55 PM 66.9 °F - 39.4 °F 36% 29.85 in 10.0 mi SSW 12.7 mph 18.4 mph N/A   Clear
1:15 PM 67.1 °F - 38.7 °F 35% 29.85 in 10.0 mi SSW 11.5 mph 19.6 mph N/A   Clear
1:35 PM 67.8 °F - 39.0 °F 35% 29.84 in 10.0 mi SW 11.5 mph - N/A   Scattered Clouds
1:55 PM 67.5 °F - 38.5 °F 35% 29.83 in 10.0 mi SSW 11.5 mph 19.6 mph N/A   Mostly Cloudy
2:15 PM 68.7 °F - 38.1 °F 33% 29.83 in 10.0 mi SW 11.5 mph 17.3 mph N/A   Scattered Clouds
2:35 PM 69.6 °F - 38.1 °F 32% 29.83 in 10.0 mi SSW 8.1 mph 19.6 mph N/A   Clear
2:55 PM 70.0 °F - 37.6 °F 31% 29.83 in 10.0 mi SSW 8.1 mph 20.7 mph N/A   Clear
3:15 PM 70.3 °F - 36.5 °F 29% 29.83 in 10.0 mi SSW 16.1 mph 25.3 mph N/A   Clear
3:35 PM 70.0 °F - 36.3 °F 29% 29.83 in 10.0 mi SW 12.7 mph 26.5 mph N/A   Clear
3:55 PM 69.8 °F - 36.3 °F 29% 29.83 in 10.0 mi SSW 11.5 mph 19.6 mph N/A   Clear
4:15 PM 69.6 °F - 36.7 °F 30% 29.83 in 10.0 mi SW 9.2 mph 21.9 mph N/A   Clear
4:35 PM 69.3 °F - 36.3 °F 30% 29.83 in 10.0 mi SSW 10.4 mph 23.0 mph N/A   Clear
4:55 PM 69.3 °F - 36.1 °F 30% 29.83 in 10.0 mi SSW 9.2 mph 17.3 mph N/A   Clear
5:15 PM 68.4 °F - 35.8 °F 30% 29.83 in 10.0 mi SSW 10.4 mph 18.4 mph N/A   Clear
5:35 PM 67.6 °F - 35.6 °F 31% 29.83 in 10.0 mi SSW 6.9 mph - N/A   Clear
5:55 PM 67.1 °F - 36.0 °F 32% 29.83 in 10.0 mi SSW 6.9 mph - N/A   Clear
6:15 PM 65.7 °F - 36.5 °F 34% 29.83 in 10.0 mi SSW 5.8 mph - N/A   Clear
6:35 PM 64.6 °F - 36.3 °F 35% 29.83 in 10.0 mi South 4.6 mph - N/A   Clear
6:55 PM 63.5 °F - 36.1 °F 36% 29.84 in 10.0 mi SSW 4.6 mph - N/A   Clear
7:15 PM 62.1 °F - 36.9 °F 39% 29.85 in 10.0 mi SSW 3.5 mph - N/A   Clear
7:35 PM 60.8 °F - 38.3 °F 43% 29.85 in 10.0 mi South 3.5 mph - N/A   Clear
7:55 PM 59.4 °F - 38.8 °F 47% 29.86 in 10.0 mi SSW 3.5 mph - N/A   Clear
8:15 PM 58.3 °F - 39.0 °F 49% 29.86 in 10.0 mi SSW 3.5 mph - N/A   Clear
8:35 PM 57.4 °F - 38.8 °F 50% 29.87 in 10.0 mi South 3.5 mph - N/A   Clear
8:55 PM 56.5 °F - 39.0 °F 52% 29.87 in 10.0 mi South 4.6 mph - N/A   Clear
9:15 PM 55.8 °F - 38.8 °F 53% 29.88 in 10.0 mi South 3.5 mph - N/A   Clear
9:35 PM 54.5 °F - 39.0 °F 56% 29.88 in 10.0 mi South 3.5 mph - N/A   Clear
9:55 PM 54.9 °F - 38.5 °F 54% 29.89 in 10.0 mi SSW 3.5 mph - N/A   Scattered Clouds
10:15 PM 56.5 °F - 37.9 °F 50% 29.90 in 10.0 mi Calm Calm - N/A   Overcast
10:35 PM 56.5 °F - 38.3 °F 51% 29.90 in 10.0 mi SSW 3.5 mph - N/A   Overcast
10:55 PM 56.7 °F - 38.5 °F 51% 29.91 in 10.0 mi SSW 4.6 mph - N/A   Overcast
11:15 PM 56.8 °F - 39.0 °F 51% 29.92 in 10.0 mi West 3.5 mph - N/A   Overcast
11:35 PM 56.7 °F - 39.2 °F 52% 29.92 in 10.0 mi WNW 3.5 mph - N/A   Overcast
11:55 PM 56.8 °F - 39.2 °F 52% 29.92 in 10.0 mi SW 3.5 mph - N/A   Overcast